AQI (36)

Current Conditions for Foresthill, CA. A few clouds , Dry   
Visibility: 10 miles
Cloud ht: 4773 ft
Space WX Alerts: WARNING:  Geomagnetic K-index of 4 expected ( Latest Alert ) - Issue Time: 2021 Jun 25 0234 UTC

  Summary / Temperature 

Current Temperature
69.4°F
20.8°C
(24/hr Ago)
71.2°F
(Apparent temp)
70.8°F
Comfortable
Wind Chill Graphs
69.5°F 

73.8°F/ 23.2°C
 --- Virtual Temp: 72.7°F ---

 Temp Rate:

 24/hr Difference:

 Avg Running Temp:

 Todays High:

 Todays Low:

 Y-days High:

 Y-days Low:

 Todays HeatIdx:

 Y-days HeatIdx:

 Evapotranspiration:

-2.6°F/hr 

-1.8°F

71.8°F

79.9°F 4:48pm

63.5°F 2:05am

85.1°F 5:30pm

59.4°F 3:37am

80.2°F 4:48pm

83.1°F 5:30pm

0.133 in

115' Above Ground

 Temperature:

 6'AGL VRS 115'AGL:

 Avg Running Temp:

 Humidity:

 Todays High:

 Todays Low:

 Y-days High:

 Y-days Low:

74.0°F 

+4.6°F

74.1°F

0% 

76.0°F 4:40pm

71.0°F 1:08pm

81.0°F 5:10pm

75.0°F 8:15pm

Temp & Humidity Graphs

  Wind 

Wind Speed

 Calm

Gusting to

 None

Calm

355°  

Calm

 Avg speed:

 Wind Run:

 Peak Gust:

Calm 

28.0 miles

  17.0 mph 1:13pm

  Almanac  

Moon age: 15 days,5 hours,4 minutes,100%

Full moon
100%
Illuminated
15 days in cycle

 Moonrise:

 Moonset:

 Sunrise:

 Sunset:

 Solar Noon:

9:02pm

5:19am

5:38am

8:33pm

1:06pm

0min 12s less daylight tomorrow 

  Solar Radiation 

(Current Solar)
  No Sun Light
(Todays High)
 1069 W/m2@11:34am

Rain

 Rain Today:

 Rain Rate (/hr):

 Rain last hour:

 Rain Yesterday:

 This Month:

 Season Total:

58 Days Since Last Rain Day

0.00 in

0.000 in

0.00 in

0.00 in

0.00 in

22.73 in

Updated Time

Updated: 6/24/21  9:09pm

(Updated  sec ago)

Humidity & Barometer

 Humidity:

 Wetbulb:

 Dew Point:

 Barometer:

59% 

60.6°F 

54.4°F 

29.957 inHg 

 Baro Trend:  Steady 
Northern Calif
Preparedness
Fire 
Level 

    UV Index  

(Current UV)
0.0  None
(Todays High) @ 11:33am
7.2   High

National Weather Service Forecast

Tonight

Thunder storm
Thunder storm
Friday

Sunny
Sunny
Friday
Night
Clear
Clear
Saturday

Sunny
Sunny
Saturday
Night
Clear
Clear
Sunday

Sunny
Sunny
Lo ≈60°F Hi ≈88°F Lo ≈64°F Hi ≈97°F Lo ≈70°F Hi ≈98°F

Foresthill Probe 2 Stats  
Foresthill Probe 2: is located on Thomas Street
at 3000 feet. The main Foresthill Weather site
is located on Melody ln at the 2860 foot elevation

Calm
67.9°F
19.9°C
Temp Rate:
-1.6°F
Calm
Gusting to
None
(Humidity)
63%
Calm
336°  
Updated: 24/06/21 - 21:10:00
 Todays High: 80.8°F 11:43
 Todays Low: 61.9°F 05:43
 Rain Today: 0.00 in
 Season Total: 23.77 in

Foresthill Wx: Monthly,Yearly, Highs and Lows 

Foresthill  
This Weather Data is coming from the main Foresthill
Weather site located on Melody ln at the 2860 foot
elevation
Not Foresthill Probe 2
Weather Data
Month
  High
Month
  Low
Year
High
Year
Low
Temp 103.9°F
6/18/21
41.0°F
6/10/21
103.9°F
6/18/21
25.3°F
1/26/21
Humidity 79%
6/14/21
9%
6/17/21
100%
1/3/21
9%
3/30/21
Heat Index 99.9°F
6/18/21
44.8°F
6/10/21
99.9°F
6/18/21
31.2°F
1/26/21
Wind Chill 103.9°F
6/18/21
33.4°F
6/10/21
103.9°F
6/18/21
12.5°F
1/26/21
Wind Gust 24 mph
6/7/21
0 mph
6/1/21
50 mph
1/19/21
0 mph
1/1/21
Barometer 30.27 in
6/10/21
29.64 in
6/18/21
30.52 in
2/21/21
29.64 in
6/18/21
ET 0.29 in
6/20/21
0.00 in
6/1/21
0.29 in
6/20/21
0.00 in
1/1/21
Dew Point 59.2°F
6/24/21
25.7°F
6/11/21
59.2°F
6/24/21
3.6°F
2/24/21
Visible Satellite Pacific Satellite US Radar Satellite Imagery Sacramento,CA.  (click to enlarge)
NWS Weather Forecast - Summary
Updated: Thursday, June 24, 2021 - 2:12pm PDT
RED FLAG WARNING IN EFFECT THROUGH 9 PM PDT THIS EVENING FOR ABUNDANT LIGHTNING WITH DRY FUELS OVER THE SHASTA COUNTY MOUNTAINS, AND PORTIONS OF EASTERN TEHAMA AND WESTERN PLUMAS COUNTY Scattered Afternoon Thunderstorms in the Foothills and Mountains Today and Friday
NWS Weather Forecast: Tonight and Friday (Updated: Thu, 24-Jun-2021 1:56pm PDT)
Tonight

Thunder storm
Thunder storm
Lo ≈60°F
NWS forecast: Mostly clear. A slight chance of showers and thunderstorms in the evening. Lows 55 to 65. Prevailing west winds up to 10 mph in the evening becoming light.
Friday

Sunny
Sunny
Hi ≈88°F
NWS forecast: Sunny. Highs 83 to 93. Prevailing west winds up to 10 mph.
YR.NO 10 Day Weather forecast
Last update: 06/24/2021 @ 18:05
Next update: 06/25/2021 @ 00:05
Provided by: 22
      Temperature Precipitation Pressure Wind  
Today
06/24/2021
18:00 00:00 79°F   29.94 inHg Light breeze from west 5 mph
    (Click to enlarge)
meteogram

    Forecast for next 9 days

      Temperature Precip Pressure Wind  
Friday
06/25/2021
00:00 06:00 63°F   30.00 inHg Light air from east-northeast 2 mph
  06:00 12:00 55°F   29.98 inHg Light breeze from east 4 mph
  12:00 18:00 82°F   29.94 inHg Light breeze from west 6 mph
  18:00 00:00 84°F   29.86 inHg Light breeze from west-southwest 7 mph
      Temperature Precip Pressure Wind  
Saturday
06/26/2021
00:00 06:00 63°F   29.91 inHg Light air from east-northeast 3 mph
  06:00 12:00 59°F   29.89 inHg Light breeze from east-northeast 6 mph
  12:00 18:00 91°F   29.86 inHg Light breeze from west-southwest 6 mph
  18:00 00:00 93°F   29.78 inHg Light breeze from west 6 mph
      Temperature Precip Pressure Wind  
Sunday
06/27/2021
00:00 06:00 66°F   29.80 inHg Light breeze from east-northeast 5 mph
  05:00 11:00 63°F   29.77 inHg Light breeze from east 4 mph
  11:00 17:00 91°F   29.80 inHg Light breeze from west-southwest 6 mph
  17:00 23:00 93°F   29.75 inHg Light breeze from west-southwest 7 mph
  23:00 05:00 75°F   29.78 inHg Light air from east 3 mph
      Temperature Precip Pressure Wind  
Monday
06/28/2021
05:00 11:00 63°F   29.78 inHg Light air from east 3 mph
  11:00 17:00 90°F   29.79 inHg Light breeze from west-southwest 6 mph
  17:00 23:00 91°F   29.76 inHg Light breeze from west-southwest 7 mph
  23:00 05:00 72°F   29.79 inHg Light air from east 2 mph
      Temperature Precip Pressure Wind  
Tuesday
06/29/2021
05:00 11:00 59°F   29.76 inHg Light air from east 3 mph
  11:00 17:00 90°F   29.78 inHg Light breeze from west-southwest 6 mph
  17:00 23:00 93°F   29.74 inHg Light breeze from west-southwest 6 mph
  23:00 05:00 75°F   29.78 inHg Light air from east 3 mph
      Temperature Precip Pressure Wind  
Wednesday
06/30/2021
05:00 11:00 61°F   29.78 inHg Light breeze from east 5 mph
  11:00 17:00 93°F   29.80 inHg Light breeze from southwest 6 mph
  17:00 23:00 93°F   29.78 inHg Light breeze from west-southwest 7 mph
  23:00 05:00 73°F   29.81 inHg Light air from east 2 mph
      Temperature Precip Pressure Wind  
Thursday
07/01/2021
05:00 11:00 63°F   29.81 inHg Light breeze from east-northeast 4 mph
  11:00 17:00 88°F   29.86 inHg Light breeze from west-southwest 6 mph
  17:00 23:00 90°F   29.81 inHg Light breeze from west-southwest 6 mph
  23:00 05:00 70°F   29.89 inHg Light air from southeast 2 mph
      Temperature Precip Pressure Wind  
Friday
07/02/2021
05:00 11:00 63°F   29.89 inHg Light air from east 3 mph
  11:00 17:00 82°F   29.94 inHg Light breeze from west-southwest 5 mph
  17:00 23:00 84°F   29.91 inHg Light breeze from west 5 mph
  23:00 05:00 73°F   29.96 inHg Light air from east-southeast 1 mph
      Temperature Precip Pressure Wind  
Saturday
07/03/2021
05:00 11:00 64°F   29.95 inHg Light air from east 1 mph
  11:00 17:00 86°F   29.95 inHg Light breeze from west 6 mph
  17:00 23:00 91°F   29.88 inHg Light breeze from west 6 mph
How Close Are We To this Month's Temperature Record ?
Updated Thursday, Jun 24, 2021- 9:05:01 PM

Current Temperature: 69.4°F

June's High: Temperature Record 103.9°F - Set on Fri, Jun 18, 2021 - 5:05:16 PM
We are currently 34.5°F Less than this Month's record High

June's Low: Temperature Record 40.8°F - Set on Tue, Jun 5, 2012 - 5:41:00 AM
We are currently 28.6°F More than this Month's record Low

Weather History For Thursday, June 24, 2021


On this Day - In Weather History ...
Data courtesy of weatherforyou.com
powered by Cumulus v1.9.3 (1059)
Ambient Weather VWS v14.00
Top Website Map Copyright © 2007 - 2021 Foresthillweather.com Never base important decisions on this or any weather information obtained from the Internet